Other Surface Observations
Issued by NWS Charleston, SC

Current Version | Previous Version | Text Only | Print | Product List | Glossary On
Versions: 1 2 3 4 5 6 7 8 9 10 11 12 13 14 15 16 17 18 19 20 21 22 23 24 25 26 27 28 29 30 31 32 33 34 35 36 37 38 39 40 41 42 43 44 45 46 47 48 49 50
000
SXUS52 KCHS 031327
OSOCHS

MARINE OBSERVATIONS
NATIONAL WEATHER SERVICE CHARLESTON SC
900 AM EDT MON AUG 03 2015

...DOWNTOWN CHARLESTON AND HARBOR...

CITY           SKY/WX    TMP DP  RH WIND       PRES   REMARKS
WATERFRONT PRK   N/A     81  75  82 S7        29.91R

...LAKE MOULTRIE...

CITY           SKY/WX    TMP DP  RH WIND       PRES   REMARKS
PINOPOLIS      NOT AVBL

...LAKE AND SUPPLEMENTAL COASTAL OBSERVATIONS...

STATION/POSITION TIME  TEMP    WIND        PRES    WAVE   SWELL
                       AIR SEA DIR/SP/G            HT/PER HT/PER/DIR
                 (UTC) (F)     (DEG/KT/KT) (MB)    (FT/S) (FT/S/D)
FORT PULASKI     1300   82 85  140/  9/ 17 1013.6R
SAPELO ISLAND    1300   82     150/ 10     1012.0S
UPR LAKE MARION  NOT AVBL
WINYAH BAY       1200   78     220/  4     1013.0S
LAKE MURRAY      1300   77      90/  2/  4 1013.9R
ACE BASIN NERRS  NOT AVBL


...C-MAN AND BUOY OBSERVATIONS...

STATION/POSITION TIME  TEMP    WIND        PRES    WAVE   SWELL
                       AIR SEA DIR/SP/G            HT/PER HT/PER/DIR
                 (UTC) (F)     (DEG/KT/KT) (MB)    (FT/S) (FT/S/D)
BUOY 41004       1250   80 83  160/ 17/ 19 1013.3S   4/ 7   2/ 7
BUOY 41008       1250   81 83  160/ 16/ 17 1012.7R   4/ 6   2/ 80/ 9
FOLLY BEACH CMAN 1300   82     200/ 10/ 12 1013.9R
CAPERS NS BUOY   1208   82     200/ 12/ 16 1013.7R
FRIPP NS BUOY    1200   82     210/ 17/ 19 1012.6R
5E ST. MARYS GA  1221      82                N/A     5/ 5   2/ 90/11


STATION/POSITION TIME  TEMP    WIND        PRES    WAVE   SWELL
                       AIR SEA DIR/SP/G            HT/PER HT/PER/DIR
                 (UTC) (F)     (DEG/KT/KT) (MB)    (FT/S) (FT/S/D)
FRYING PAN BUOY  1250   79 82  160/ 10/ 14 1014.8R   4/ 6   3/180/ 6
BUOY 41025       1250   76 84  310/ 19/ 23 1015.1S   6/ 7   2/130/12
CAPE LOOKOUT NC  1300   78     280/ 11/ 12 1014.5S
BUOY 41002       1250   83 81  210/ 14/ 16 1017.3R   5/ 6   3/110/11
BUOY 41010       1220   83 84  170/ 16/ 19 1015.2R
ST AUGUSTINE FL  1300   78 78  170/ 19/ 21 1012.4F

$$



USA.gov is the U.S. government's official web portal to all federal, state and local government web resources and services.